Flag for Germany Weather past 2 weeks in Ratingen, North Rhine-Westphalia, Germany

Now
63 °F

Broken clouds.


Feels Like: 63 °F
Forecast: 54 / 65 °F
Wind: 23 mph from Southwest

Location: Duesseldorf

Current Time: Jul 28, 2015 at 4:16:28 PM

Latest Report: Jul 28, 2015 at 3:20 PM


Visibility: N/A

Pressure: 29.74 "Hg

Humidity: 64%

Dew point: 50 °F

Location of RatingenLocation

Historic Weather in Ratingen — Graph

°F

Ratingen temperature yesterday

Maximum temperature yesterday: 70 °F (at 5:20 PM)
Minimum temperature yesterday: 57 °F (at 1:20 AM)
Average temperature yesterday: 63 °F

Past Weeks' High & Low Weather Summary

 TemperatureHumidityPressure
High91 °F (Jul 17, 4:50 PM)100% (Jul 14, 7:20 AM)30.12 "Hg (Jul 14, 7:20 AM)
Low48 °F (Jul 26, 5:50 AM)26% (Jul 17, 4:50 PM)29.50 "Hg (Jul 25, 6:50 AM)
Average67 °F73%29.90 "Hg
* Reported Jul 13 3:20 PM — Jul 28 3:20 PM, Ratingen, Weather by CustomWeather, © 2015

Note: Actual official high and low records may vary slightly from our data, if they occured in-between our weather recording intervals... More about our weather records

Advertising

Ratingen weather history for previous 24 hours

 ConditionsComfort  
Time TempWeatherWind HumidityBarometerVisibility
3:20 PM
Tue, Jul 28
63 °FBroken clouds.23 mph64%29.74 "HgN/A
2:50 PM63 °FSprinkles. Broken clouds.23 mph68%29.74 "HgN/A
2:20 PM61 °FBroken clouds.22 mph77%29.74 "HgN/A
1:50 PM61 °FPartly sunny.16 mph83%29.74 "HgN/A
1:20 PM57 °FSprinkles. Broken clouds.18 mph88%29.74 "Hg5 mi
12:50 PM57 °FSprinkles. Broken clouds.23 mph94%29.74 "Hg5 mi
12:20 PM63 °FPartly sunny.21 mph64%29.71 "HgN/A
11:20 AM63 °FBroken clouds.22 mph68%29.71 "HgN/A
10:50 AM63 °FPartly sunny.22 mph68%29.71 "HgN/A
10:20 AM61 °FPartly sunny.22 mph72%29.68 "HgN/A
9:50 AM61 °FPartly sunny.20 mph77%29.68 "HgN/A
9:20 AM59 °FPartly sunny.16 mph77%29.68 "HgN/A
8:50 AM59 °FPartly sunny.16 mph77%29.68 "HgN/A
8:20 AM57 °FLight rain. Broken clouds.12 mph82%29.68 "HgN/A
7:50 AM59 °FLight rain. Broken clouds.17 mph72%29.68 "HgN/A
7:20 AM59 °FPartly sunny.16 mph72%29.65 "HgN/A
6:50 AM57 °FScattered clouds.14 mph77%29.65 "HgN/A
6:20 AM55 °FClear.14 mph77%29.65 "Hg10 mi
5:50 AM55 °FClear.13 mph77%29.65 "Hg10 mi
5:20 AM55 °FClear.14 mph77%29.65 "Hg10 mi
4:50 AM55 °FClear.15 mph77%29.65 "Hg10 mi
4:20 AM55 °FClear.14 mph77%29.65 "Hg10 mi
3:50 AM55 °FClear.10 mph77%29.65 "Hg10 mi
3:20 AM55 °FClear.13 mph77%29.65 "Hg10 mi
2:50 AM57 °FClear.13 mph72%29.65 "Hg10 mi
2:20 AM57 °FClear.13 mph72%29.65 "Hg10 mi
1:50 AM57 °FClear.14 mph72%29.65 "Hg10 mi
1:20 AM59 °FPassing clouds.13 mph68%29.65 "HgN/A
12:50 AM61 °FPartly cloudy.13 mph68%29.65 "HgN/A
12:20 AM61 °FPassing clouds.15 mph68%29.65 "HgN/A
11:50 PM
Mon, Jul 27
61 °FPassing clouds.17 mph68%29.65 "HgN/A
11:20 PM63 °FPassing clouds.15 mph68%29.65 "HgN/A
10:50 PM63 °FPassing clouds.15 mph77%29.65 "HgN/A
10:20 PM63 °FPassing clouds.14 mph83%29.65 "HgN/A
9:50 PM63 °FPassing clouds.9 mph88%29.62 "HgN/A
9:20 PM63 °FSprinkles. Broken clouds.13 mph88%29.62 "HgN/A
8:50 PM64 °FSprinkles. Broken clouds.15 mph83%29.62 "HgN/A
8:20 PM66 °FScattered clouds.16 mph73%29.62 "HgN/A
7:50 PM68 °FSprinkles. Broken clouds.15 mph64%29.59 "HgN/A
7:20 PM70 °FScattered clouds.15 mph60%29.59 "HgN/A
6:50 PM70 °FScattered clouds.15 mph60%29.59 "HgN/A
6:20 PM70 °FScattered clouds.23 mph60%29.59 "HgN/A
5:50 PM68 °FBroken clouds.18 mph64%29.59 "HgN/A
5:20 PM70 °FBroken clouds.24 mph64%29.59 "HgN/A
4:50 PM68 °FBroken clouds.23 mph64%29.59 "HgN/A
4:20 PM68 °FSprinkles. Broken clouds.21 mph69%29.59 "HgN/A
Weather by CustomWeather, © 2015

See weather overviewHow to use our weather pages